Location: Alpha Ridge Park
(39.3209°N, 76.9128°W)
Time: 16:31:43
(UTC-04:00)

Courier 1B Rocket - All Passes

Search period start: 19 May 2019 00:00
Search period end: 29 May 2019 00:00
Orbit: 920 x 1202 km, 28.2° (Epoch: 17 May)

Date Brightness Start Highest point End Pass type
(mag) Time Alt. Az. Time Alt. Az. Time Alt. Az.
19 May - 17:05:36 10° S 17:09:26 14° SSE 17:13:15 10° ESE daylight
19 May - 18:55:47 10° SW 19:02:13 29° SSE 19:08:29 10° ESE daylight
19 May - 20:48:26 10° WSW 20:55:14 35° S 21:01:42 10° ESE visible
19 May - 22:42:08 10° WSW 22:48:07 27° SSW 22:53:47 10° SE visible
20 May - 00:38:22 10° SW 00:40:35 12° SSW 00:42:47 10° S visible
20 May - 17:55:13 10° SSW 18:01:13 24° SSE 18:07:08 10° ESE daylight
20 May - 19:47:19 10° WSW 19:54:12 35° S 20:00:49 10° ESE daylight
20 May - 21:40:41 10° WSW 21:47:12 31° S 21:53:22 10° SE visible
20 May - 23:35:28 10° WSW 23:39:51 17° SSW 23:44:04 10° SSE visible
21 May - 16:55:01 10° SSW 17:00:15 20° SSE 17:05:30 10° ESE daylight
21 May - 18:46:22 10° SW 18:53:09 33° S 18:59:47 10° ESE daylight
21 May - 20:39:23 10° WSW 20:46:12 35° S 20:52:44 10° SE visible
21 May - 22:33:29 10° WSW 22:39:02 22° SSW 22:44:19 10° SSE visible
22 May - 15:55:27 10° S 15:59:21 15° SSE 16:03:17 10° ESE daylight
22 May - 17:45:36 10° SW 17:52:06 29° SSE 17:58:35 10° ESE daylight
22 May - 19:38:11 10° WSW 19:45:10 36° S 19:51:55 10° ESE daylight
22 May - 21:31:52 10° WSW 21:38:08 28° SSW 21:44:07 10° SE visible
22 May - 23:27:55 10° SW 23:30:41 12° SSW 23:33:23 10° S visible
23 May - 16:45:05 10° SSW 16:51:06 25° SSE 16:57:09 10° ESE daylight
23 May - 18:37:08 10° WSW 18:44:05 36° S 18:50:56 10° ESE daylight
23 May - 20:30:27 10° WSW 20:37:09 32° S 20:43:37 10° SE daylight
23 May - 22:25:10 10° WSW 22:29:53 18° SSW 22:34:27 10° SSE visible
24 May - 15:44:58 10° SSW 15:50:09 20° SSE 15:55:25 10° ESE daylight
24 May - 17:36:14 10° SW 17:43:01 33° S 17:49:49 10° ESE daylight
24 May - 19:29:10 10° WSW 19:36:06 35° S 19:42:53 10° ESE daylight
24 May - 21:23:14 10° WSW 21:29:00 23° SSW 21:34:36 10° SSE visible
25 May - 14:45:29 10° S 14:49:16 14° SSE 14:53:06 10° ESE daylight
25 May - 16:35:32 10° SW 16:41:58 29° SSE 16:48:31 10° ESE daylight
25 May - 18:28:02 10° WSW 18:35:02 37° S 18:41:59 10° ESE daylight
25 May - 20:21:38 10° WSW 20:28:03 28° SSW 20:34:18 10° SE daylight
25 May - 22:17:31 10° SW 22:20:41 13° SSW 22:23:48 10° S visible
26 May - 15:35:07 10° SSW 15:40:59 25° SSE 15:47:01 10° ESE daylight
26 May - 17:27:03 10° WSW 17:33:57 36° S 17:40:54 10° ESE daylight
26 May - 19:20:17 10° WSW 19:27:02 32° S 19:33:42 10° SE daylight
26 May - 21:14:54 10° WSW 21:19:50 18° SSW 21:24:41 10° SSE visible
27 May - 14:35:06 10° SSW 14:40:05 19° SSE 14:45:12 10° ESE daylight
27 May - 16:26:15 10° SW 16:32:53 33° S 16:39:41 10° ESE daylight
27 May - 18:19:04 10° WSW 18:25:58 35° S 18:32:53 10° ESE daylight
27 May - 20:13:02 10° WSW 20:18:55 23° SSW 20:24:42 10° SSE daylight
28 May - 13:35:46 10° S 13:39:15 14° SSE 13:42:48 10° ESE daylight
28 May - 15:25:39 10° SW 15:31:52 29° SSE 15:38:20 10° ESE daylight
28 May - 17:18:02 10° WSW 17:24:53 36° S 17:31:53 10° ESE daylight
28 May - 19:11:31 10° WSW 19:17:56 28° SSW 19:24:19 10° SE daylight
28 May - 21:07:16 10° SW 21:10:38 13° SSW 21:13:59 10° S visible
